Location: Pasarilla del Rebollar
(40.6790°N, 5.0062°W)
Time: 11:08:56
(UTC+00:00)

Cosmos 2322 Rocket - Pass Details

Date: 22 April 2026
Orbit: 832 x 849 km, 71.0° (Epoch: 15 May)

Event Time Altitude Azimuth Distance (km) Brightness Sun altitude
Rises 02:44:25 0° 338° (NNW) 3,394 5.7 -27.3°
Reaches altitude 10° 02:46:53 10° 341° (NNW) 2,459 4.9 -27.0°
Maximum altitude 02:52:31 70° 65° (ENE) 896 2.4 -26.3°
Enters shadow 02:56:27 20° 146° (SE) 1,838 3.8 -25.8°
